Regional Weather Roundup
Issued by NWS

Home | Current Version | Previous Version | Text Only | Print | Product List | Glossary Off
Versions: 1 2 3 4 5 6 7 8 9 10 11 12 13 14 15 16 17 18 19 20 21 22 23 24 25 26 27 28 29 30 31 32 33 34 35 36 37 38 39 40 41 42 43 44 45 46 47 48 49 50

000
ASUS43 KOAX 010602
RWRNE

WEATHER ROUNDUP FOR NEBRASKA
NATIONAL WEATHER SERVICE OMAHA NE
100 AM CDT SAT AUG 01 2015

NOTES: SATELLITE DATA IS BEING USED TO AUGMENT CLOUD COVER ABOVE
       12000 FEET.
       "FAIR" INDICATES FEW OR NO CLOUDS BELOW 12,000 FEET WITH NO
       SIGNIFICANT WEATHER AND/OR OBSTRUCTIONS TO VISIBILITY.

  * THESE STATIONS DO NOT REPORT WEATHER SUCH AS RAIN...SNOW OR FOG.

NEZ001>004-019>022-054>056-010700-
NEBRASKA PANHANDLE

CITY           SKY/WX    TMP DP  RH WIND       PRES   REMARKS
SCOTTSBLUFF    CLEAR     66  57  72 E8        30.15F
6HR MIN TEMP:  66; 6HR MAX TEMP:  89;

ALLIANCE       CLEAR     63  56  78 E5        30.15F
6HR MIN TEMP:  62; 6HR MAX TEMP:  86;

CHADRON        PTCLDY    64  56  75 NE3       30.11S
6HR MIN TEMP:  62; 6HR MAX TEMP:  91;

KIMBALL        CLEAR     63  50  63 S7        30.21F
SIDNEY         CLEAR     64  53  67 S7        30.20F
6HR MIN TEMP:  63; 6HR MAX TEMP:  88;

$$

NEZ057>060-069>072-079>082-010700-
SOUTHWEST NEBRASKA

CITY           SKY/WX    TMP DP  RH WIND       PRES   REMARKS
NORTH PLATTE   CLEAR     66  59  78 E10       30.14S
6HR MIN TEMP:  66; 6HR MAX TEMP:  90;

IMPERIAL       CLEAR     70  58  65 S3        30.15S
6HR MIN TEMP:  67; 6HR MAX TEMP:  93;

MCCOOK         PTCLDY    76  62  62 E5        30.14R
6HR MIN TEMP:  75; 6HR MAX TEMP:  94;

$$

NEZ005>010-023>029-035>040-094-010700-
NORTH CENTRAL NEBRASKA

CITY           SKY/WX    TMP DP  RH WIND       PRES   REMARKS
VALENTINE      CLEAR     70  61  73 E7        30.13S
6HR MIN TEMP:  70; 6HR MAX TEMP:  93;

AINSWORTH      CLEAR     66  61  84 SE3       30.15S
BROKEN BOW     CLEAR     70  57  63 S5        30.13F
6HR MIN TEMP:  68; 6HR MAX TEMP:  83;

ORD            CLEAR     64  62  93 NW5       30.11S
6HR MIN TEMP:  63; 6HR MAX TEMP:  74;

$$

NEZ041-046>049-061>064-073>077-083>087-010700-
SOUTH CENTRAL NEBRASKA

CITY           SKY/WX    TMP DP  RH WIND       PRES   REMARKS
GRAND ISLAND   PTCLDY    70  62  76 S3        30.10F
6HR MIN TEMP:  65; 6HR MAX TEMP:  72; 6HR PCP:  0.47;

AURORA         PTCLDY    68  63  85 SE6       30.11R
HASTINGS       PTCLDY    74  62  66 S6        30.10F
6HR MIN TEMP:  70; 6HR MAX TEMP:  78; 6HR PCP:  0.12;

KEARNEY *      CLEAR     66  59  77 S9        30.12S
$$

NEZ011>018-030>034-042>045-010700-
NORTHEAST NEBRASKA

CITY           SKY/WX    TMP DP  RH WIND       PRES   REMARKS
NORFOLK        CLEAR     62  60  93 CALM      30.10S
6HR MIN TEMP:  62; 6HR MAX TEMP:  79;

ALBION         CLEAR     62  59  91 CALM      30.11F
BLAIR          CLEAR     71  68  90 N6        30.08S
COLUMBUS *     CLEAR     59  54  82 CALM      30.12S
TEKAMAH        CLEAR     67  64  90 N5        30.08S
6HR MIN TEMP:  67; 6HR MAX TEMP:  81;

$$

NEZ050>053-065>068-078-088>093-010700-
SOUTHEAST NEBRASKA

CITY           SKY/WX    TMP DP  RH WIND       PRES   REMARKS
LINCOLN        CLEAR     68  64  87 NW3       30.09S
6HR MIN TEMP:  65; 6HR MAX TEMP:  85;

OMAHA EPPLEY   PTCLDY    74  70  87 SE7       30.08R
6HR MIN TEMP:  71; 6HR MAX TEMP:  87;

BEATRICE       PTCLDY    69  65  84 CALM      30.09R
FALLS CITY     PTCLDY    72  68  87 S6        30.07S
6HR MIN TEMP:  71; 6HR MAX TEMP:  88;

NEBRASKA CITY  CLEAR     69  67  95 S7        30.08F
$$

NEZ044-045-051>053-067-010700-
OMAHA AREA

CITY           SKY/WX    TMP DP  RH WIND       PRES   REMARKS
OMAHA EPPLEY   PTCLDY    74  70  87 SE7       30.08R
6HR MIN TEMP:  71; 6HR MAX TEMP:  87;

BLAIR          CLEAR     71  68  90 N6        30.08S
WAHOO          FAIR      67  65  93 NW7       30.09R
$$


USA.gov is the U.S. government's official web portal to all federal, state and local government web resources and services.